Weather in Mianwali

Pakistan     32°35′13″N   71°32′34″E
temp.,
°C
wind,
m/s
gust,
m/s
humid.,
%
clouds,
%
prec.,
mm/h
press.,
hPa
HPBL,
m
18 october, mon
mon1823:00+29nne012216 0.0 100611
02:00+26sse123158 0.0 100612
05:00+25sw22435 0.0 100615
08:00+26sse22420 0.0 1008189
11:00+31sse22320 0.0 1007989
14:00+33s12220 0.0 10042803
17:00+33sse23210 0.0 1004208
20:00+29sse33250 0.0 100523
19 october, tue
tue1923:00+28s22280 0.0 100713
02:00+25sse47460 0.0 1007111
05:00+23s33530 0.0 100831
08:00+25sse11480 0.0 1010137
11:00+31wnw11300 0.0 1010886
14:00+34wnw12190 0.0 10072084
17:00+33e22180 0.0 100633
20:00+29s12160 0.0 100812
20 october, wed
wed2023:00+27sse22140 0.0 100912
02:00+25se11200 0.0 100911
05:00+24ese11250 0.0 101011
08:00+26sse33260 0.0 1012112
11:00+31sse12200 0.0 1012760
14:00+34sse11150 0.0 10091852
17:00+33se22160 0.0 100814
20:00+29ese22190 0.0 100911
21 october, thu
thu2123:00+27se11220 0.0 101011
02:00+25nne11230 0.0 100911
05:00+24nne11260 0.0 100911
08:00+27sse22210 0.0 101080
11:00+32sse22150 0.0 1010753
14:00+35sse22110 0.0 10071750
17:00+33se33120 0.0 100636
20:00+29ese22150 0.0 100713
22 october, fri
fri2223:00+27ene11180 0.0 100711
02:00+25s22205 0.0 100711
05:00+23sw11245 0.0 100711
08:00+26wnw00215 0.0 100961
11:00+31n11155 0.0 1008756
14:00+34se22135 0.0 10051456
17:00+33se57145 0.0 1003167
20:00+28sse221584 0.0 100512